User: anonymous   Login
Location: Fremont
(37.5480°N, 121.9880°W)
Time: 17:13:40
(UTC-08:00)
Language:

Cosmos 1766 - Orbit

View from above orbital plane
View from above orbital plane
View from above satellite
View from above satellite

Ground track
Ground track

The orbit data is extracted from the following two-line orbital elements,

1 16881U 86055A   17320.89597715 +.00000695 +00000-0 +40478-4 0  9999
2 16881 082.5116 234.2762 0016022 295.4165 064.5405 15.10336550683323
Epoch (UTC): 16 November 2017 21:30:12
Eccentricity: 0.0016022
inclination: 82.5116°
perigee height: 524 km
apogee height: 546 km
right ascension of ascending node: 234.2762°
argument of perigee: 295.4165°
revolutions per day: 15.10336550
mean anomaly at epoch: 64.5405°
orbit number at epoch: 68332

The dashed part of the orbit path shows where the satellite is in the earth's shadow,  

DLR